Location: Piotrkow Trybunalski
(51.4000°N, 19.6830°E)
Time: 06:35:26
(UTC+02:00)

STRAND 1 - Pass Details

Date: 23 February 2024
Orbit: 764 x 779 km, 98.4° (Epoch: 24 April)

Event Time Altitude Azimuth Distance (km) Brightness Sun altitude
Rises 18:51:17 0° 12° (NNE) 3,275 ? -16.5°
Reaches altitude 10° 18:53:38 10° 9° (N) 2,341 ? -16.8°
Maximum altitude 18:58:43 61° 290° (WNW) 882 ? -17.6°
Drops below altitude 10° 19:03:44 10° 212° (SSW) 2,315 ? -18.4°
Sets 19:06:03 0° 208° (SSW) 3,236 ? -18.8°
